TimeEDT,TemperatureF,Dew PointF,Humidity,Sea Level PressureIn,VisibilityMPH,Wind Direction,Wind SpeedMPH,Gust SpeedMPH,PrecipitationIn,Events,Conditions,WindDirDegrees,DateUTC
12:09 AM,39.2,28.4,65,29.93,10.0,North,28.8,40.3,N/A,,Overcast,360,2012-10-30 04:09:00
12:54 AM,37.0,30.0,76,29.92,9.0,North,28.8,44.9,0.00,Snow,Light Snow,360,2012-10-30 04:54:00
1:54 AM,36.0,32.0,86,29.87,10.0,North,18.4,35.7,0.01,Rain,Light Rain,350,2012-10-30 05:54:00
2:08 AM,35.6,30.2,81,29.84,6.0,North,24.2,38.0,0.00,Snow,Light Snow,350,2012-10-30 06:08:00
2:32 AM,35.6,30.2,81,29.83,5.0,North,26.5,39.1,0.01,Snow,Light Snow,350,2012-10-30 06:32:00
2:51 AM,35.6,30.2,81,29.81,2.5,North,24.2,38.0,0.03,Snow,Light Snow,350,2012-10-30 06:51:00
2:54 AM,34.0,30.9,89,29.83,2.5,North,20.7,32.2,0.04,Snow,Light Snow,350,2012-10-30 06:54:00
3:01 AM,33.8,32.0,93,29.81,3.0,North,23.0,33.4,0.01,Snow,Light Snow,350,2012-10-30 07:01:00
3:54 AM,36.0,33.1,89,29.80,4.0,North,20.7,31.1,0.03,Snow,Light Snow,350,2012-10-30 07:54:00
4:54 AM,36.0,32.0,86,29.78,10.0,NNW,18.4,26.5,0.01,Rain,Light Rain,340,2012-10-30 08:54:00
5:54 AM,37.0,32.0,82,29.76,10.0,North,27.6,40.3,0.01,Rain,Light Rain,350,2012-10-30 09:54:00
6:54 AM,37.0,32.0,82,29.74,6.0,North,25.3,46.0,0.02,Snow,Light Snow,350,2012-10-30 10:54:00
7:54 AM,36.0,33.1,89,29.72,5.0,North,25.3,40.3,0.07,Snow,Light Snow,360,2012-10-30 11:54:00
8:00 AM,35.6,33.8,93,29.70,5.0,North,24.2,35.7,0.01,Rain-Snow,Rain,350,2012-10-30 12:00:00
8:19 AM,35.6,33.8,93,29.69,4.0,North,28.8,34.5,0.03,Rain,Rain,350,2012-10-30 12:19:00
8:54 AM,37.0,33.1,86,29.71,5.0,North,27.6,42.6,0.09,Rain,Rain,350,2012-10-30 12:54:00
9:08 AM,37.4,33.8,87,29.69,3.0,North,26.5,39.1,0.03,Rain,Rain,350,2012-10-30 13:08:00
9:25 AM,37.4,33.8,87,29.69,3.0,North,24.2,33.4,0.07,Rain,Rain,350,2012-10-30 13:25:00
9:42 AM,37.4,33.8,87,29.69,2.5,North,21.9,38.0,0.09,Rain-Snow,Rain,350,2012-10-30 13:42:00
9:54 AM,37.0,35.1,93,29.71,2.0,North,23.0,33.4,0.11,Rain-Snow,Light Rain,350,2012-10-30 13:54:00
10:00 AM,35.6,35.6,100,29.69,1.5,North,24.2,33.4,0.00,Rain-Snow,Light Rain,360,2012-10-30 14:00:00
10:18 AM,35.6,35.6,100,29.69,1.8,North,23.0,31.1,0.02,Rain,Light Rain,350,2012-10-30 14:18:00
10:23 AM,35.6,35.6,100,29.68,2.5,North,23.0,31.1,0.03,Rain,Light Rain,350,2012-10-30 14:23:00
10:31 AM,35.6,35.6,100,29.68,2.5,North,23.0,29.9,0.03,Rain,Light Rain,350,2012-10-30 14:31:00
10:47 AM,35.6,35.6,100,29.68,2.0,North,23.0,32.2,0.05,Rain-Snow,Light Rain,350,2012-10-30 14:47:00
10:54 AM,36.0,36.0,100,29.70,2.5,North,19.6,29.9,0.05,Rain-Snow,Light Rain,350,2012-10-30 14:54:00
11:11 AM,35.6,35.6,100,29.67,3.0,North,20.7,32.2,0.01,Rain-Snow,Light Rain,350,2012-10-30 15:11:00
11:21 AM,35.6,35.6,100,29.67,2.5,North,19.6,29.9,0.01,Rain-Snow,Light Rain,350,2012-10-30 15:21:00
11:44 AM,37.4,35.6,93,29.66,3.0,North,19.6,27.6,0.02,Rain-Snow,Light Rain,350,2012-10-30 15:44:00
11:54 AM,37.0,36.0,96,29.68,2.5,North,18.4,31.1,0.03,Rain,Light Rain,350,2012-10-30 15:54:00
12:02 PM,37.4,35.6,93,29.66,3.0,North,19.6,26.5,0.00,Rain,Light Rain,350,2012-10-30 16:02:00
12:11 PM,37.4,35.6,93,29.66,3.0,North,23.0,28.8,0.00,Snow,Light Snow,350,2012-10-30 16:11:00
12:19 PM,37.4,35.6,93,29.66,2.0,North,18.4,31.1,0.00,Snow,Light Snow,350,2012-10-30 16:19:00
12:54 PM,37.9,37.0,97,29.67,2.5,North,15.0,27.6,0.01,Snow,Light Snow,350,2012-10-30 16:54:00
1:26 PM,37.4,35.6,93,29.63,3.0,North,19.6,27.6,0.03,Rain,Rain,350,2012-10-30 17:26:00
1:54 PM,37.9,37.0,97,29.65,4.0,North,18.4,27.6,0.09,Rain,Rain,350,2012-10-30 17:54:00
2:54 PM,39.0,37.9,96,29.63,3.0,North,19.6,28.8,0.03,Rain,Light Rain,350,2012-10-30 18:54:00
3:19 PM,39.2,37.4,93,29.60,2.5,North,17.3,27.6,0.01,Rain,Light Rain,350,2012-10-30 19:19:00
3:26 PM,39.2,37.4,93,29.60,3.0,North,16.1,23.0,0.02,Rain,Light Rain,350,2012-10-30 19:26:00
3:37 PM,39.2,37.4,93,29.60,4.0,North,20.7,26.5,0.02,Rain,Light Rain,350,2012-10-30 19:37:00
3:54 PM,39.0,37.9,96,29.62,4.0,North,20.7,28.8,0.03,Rain,Light Rain,350,2012-10-30 19:54:00
4:25 PM,39.2,37.4,93,29.60,2.5,North,18.4,28.8,0.00,,Overcast,350,2012-10-30 20:25:00
4:34 PM,39.2,37.4,93,29.60,4.0,NNW,18.4,26.5,0.01,Rain,Light Rain,340,2012-10-30 20:34:00
4:54 PM,39.0,37.0,93,29.62,5.0,North,17.3,27.6,0.02,Rain,Light Rain,350,2012-10-30 20:54:00
5:33 PM,37.4,37.4,100,29.61,2.0,North,19.6,29.9,0.02,Snow,Light Snow,350,2012-10-30 21:33:00
5:54 PM,37.9,37.0,97,29.63,1.8,North,17.3,24.2,0.02,Snow,Light Snow,350,2012-10-30 21:54:00
6:17 PM,37.4,37.4,100,29.61,3.0,NNW,17.3,23.0,0.01,Snow,Light Snow,340,2012-10-30 22:17:00
6:40 PM,37.4,37.4,100,29.61,3.0,North,19.6,26.5,0.03,Rain,Rain,350,2012-10-30 22:40:00
6:54 PM,37.9,37.0,97,29.63,4.0,North,17.3,26.5,0.04,Snow,Light Snow,350,2012-10-30 22:54:00
7:47 PM,37.4,37.4,100,29.60,4.0,North,19.6,27.6,0.01,Rain,Light Rain,350,2012-10-30 23:47:00
7:54 PM,37.9,36.0,93,29.62,4.0,North,20.7,26.5,0.01,Rain,Light Rain,350,2012-10-30 23:54:00
8:01 PM,37.4,35.6,93,29.60,5.0,NNW,23.0,28.8,0.00,Rain,Light Rain,340,2012-10-31 00:01:00
8:32 PM,37.4,35.6,93,29.60,4.0,North,19.6,27.6,0.00,Snow,Light Snow,350,2012-10-31 00:32:00
8:54 PM,37.9,37.0,97,29.63,5.0,North,17.3,27.6,0.01,Snow,Light Snow,350,2012-10-31 00:54:00
9:02 PM,37.4,37.4,100,29.61,7.0,North,18.4,25.3,0.00,Rain,Light Rain,350,2012-10-31 01:02:00
9:39 PM,37.4,35.6,93,29.60,5.0,North,19.6,25.3,0.00,Rain,Light Rain,350,2012-10-31 01:39:00
9:54 PM,37.9,37.0,97,29.62,6.0,NNW,17.3,25.3,0.00,Rain,Light Rain,340,2012-10-31 01:54:00
10:07 PM,37.4,37.4,100,29.61,5.0,North,17.3,25.3,0.00,Snow,Light Snow,350,2012-10-31 02:07:00
10:54 PM,37.9,37.0,97,29.62,6.0,North,16.1,24.2,0.00,Rain,Light Rain,350,2012-10-31 02:54:00
11:54 PM,37.9,37.0,97,29.61,9.0,North,15.0,-,0.00,,Overcast,350,2012-10-31 03:54:00